Location: Pardubice
(50.0330°N, 15.7830°E)
Time: 09:20:28
(UTC+02:00)

Courier 1B Rocket - Visible Passes

Search period start: 07 October 2024 00:00
Search period end: 17 October 2024 00:00
Orbit: 920 x 1201 km, 28.2° (Epoch: 06 October)

Date Brightness Start Highest point End Pass type
(mag) Time Alt. Az. Time Alt. Az. Time Alt. Az.
13 Oct 7.5 06:40:47 10° SSW 06:43:39 12° S 06:46:27 10° SSE visible
14 Oct 7.5 05:40:21 10° S 05:42:47 12° S 05:45:13 10° SSE visible
15 Oct 7.5 04:41:07 10° S 04:41:56 10° SSE 04:42:46 10° SSE visible
15 Oct 7.4 06:30:48 10° SSW 06:34:01 13° S 06:37:10 10° SSE visible
16 Oct 7.4 05:29:56 10° SSW 05:33:09 13° S 05:36:20 10° SSE visible
